K4AGR Weather Reports


Display with metric or nautical units.
time (UTC)temp
F
wind
direction
speed
MPH
gust
MPH
rain 1hr
in
rain 24hr
in
rain mn
in
humidity
%
barometer
mb
20210921054011 73 0 0.0 0.0 0.00 0.73 0.00 100 1016.6
20210921053513 73 0 0.0 0.0 0.00 0.73 0.00 100 1016.4
20210921053010 73 0 0.0 0.0 0.00 0.73 0.00 100 1016.4
20210921052512 73 0 0.0 0.0 0.00 0.73 0.00 100 1016.7
20210921052015 72 0 0.0 0.0 0.00 0.73 0.00 99 1016.7
20210921051535 72 0 0.0 0.0 0.00 0.73 0.00 99 1016.6
20210921051010 73 0 0.0 0.0 0.00 0.73 0.00 99 1016.7
20210921050510 72 0 0.0 0.0 0.00 0.73 0.00 99 1016.7
20210921050111 73 0 0.0 0.0 0.00 0.73 0.00 99 1016.7
20210921045532 73 0 0.0 0.0 0.00 0.73 0.73 99 1016.8
20210921045034 73 0 0.0 0.0 0.00 0.73 0.73 99 1016.8
20210921044512 73 0 0.0 0.0 0.00 0.73 0.73 99 1016.9
20210921044012 73 0 0.0 0.0 0.00 0.73 0.73 99 1016.9
20210921043514 73 0 0.0 0.0 0.00 0.73 0.73 99 1017.0
20210921043010 73 0 0.0 0.0 0.00 0.73 0.73 99 1017.1
20210921042529 73 0 0.0 0.0 0.00 0.73 0.73 99 1017.2
20210921042012 73 0 0.0 0.0 0.00 0.73 0.73 99 1017.3
20210921041527 73 0 0.0 0.0 0.00 0.73 0.73 99 1017.3
20210921041016 73 0 0.0 0.0 0.00 0.73 0.73 99 1017.4
20210921040518 73 0 0.0 0.0 0.00 0.73 0.73 99 1017.3
20210921040013 73 0 0.0 0.0 0.00 0.73 0.73 99 1017.3
20210921035516 73 0 0.0 0.0 0.00 0.73 0.73 99 1017.4
20210921035010 73 0 0.0 0.0 0.00 0.73 0.73 99 1017.3
20210921034521 73 0 0.0 0.0 0.00 0.73 0.73 99 1017.2
20210921034025 73 0 0.0 0.0 0.00 0.73 0.73 99 1017.2
20210921033516 73 0 0.0 0.0 0.00 0.73 0.73 99 1017.2
20210921033043 73 0 0.0 0.0 0.00 0.73 0.73 99 1017.2
20210921032511 73 0 0.0 0.0 0.00 0.73 0.73 99 1017.2
20210921032011 73 0 0.0 0.0 0.00 0.73 0.73 99 1017.3
20210921031530 73 0 0.0 0.0 0.00 0.73 0.73 99 1017.1
20210921031011 73 0 0.0 0.0 0.00 0.73 0.73 99 1017.2
20210921030510 73 0 0.0 0.0 0.00 0.73 0.73 99 1017.3
20210921030014 74 0 0.0 0.0 0.00 0.73 0.73 99 1017.2
20210921025515 74 0 0.0 0.0 0.00 0.73 0.73 99 1017.2
20210921025029 74 0 0.0 0.0 0.00 0.73 0.73 99 1017.1
20210921024519 74 0 0.0 0.0 0.00 0.73 0.73 99 1017.3
20210921024010 74 0 0.0 0.0 0.00 0.73 0.73 99 1017.2
20210921023515 74 0 0.0 0.0 0.00 0.73 0.73 99 1017.3
20210921023054 74 0 0.0 0.0 0.00 0.73 0.73 99 1017.1
20210921022516 74 0 0.0 0.0 0.00 0.73 0.73 99 1017.2
20210921022017 74 0 0.0 0.0 0.00 0.73 0.73 99 1017.1
20210921021512 74 0 0.0 0.0 0.00 0.73 0.73 99 1017.1
20210921021015 74 0 0.0 0.0 0.00 0.73 0.73 99 1016.9
20210921020511 74 0 0.0 0.0 0.00 0.73 0.73 99 1017.0
20210921020026 74 0 0.0 0.0 0.00 0.73 0.73 99 1016.8
20210921015513 74 0 0.0 0.0 0.00 0.76 0.73 99 1016.9
20210921015012 74 0 0.0 0.0 0.00 0.76 0.73 99 1016.8
20210921014517 74 0 0.0 0.0 0.00 0.76 0.73 99 1016.8
20210921014012 74 0 0.0 0.0 0.00 0.76 0.73 99 1016.7
20210921013533 74 0 0.0 0.0 0.00 0.76 0.73 99 1016.6
20210921013019 74 0 0.0 0.0 0.00 0.76 0.73 99 1016.5
20210921012530 74 0 0.0 0.0 0.00 0.76 0.73 99 1016.6
20210921012017 74 0 0.0 0.0 0.00 0.76 0.73 99 1016.5
20210921011515 74 0 0.0 0.0 0.00 0.76 0.73 99 1016.4
20210921011011 74 0 0.0 0.0 0.00 0.76 0.73 99 1016.3
20210921010512 74 0 0.0 0.0 0.00 0.76 0.73 99 1016.3
20210921010021 74 0 0.0 0.0 0.00 0.76 0.73 99 1016.1
20210921005528 74 0 0.0 0.0 0.00 0.78 0.73 99 1016.1
20210921005011 74 0 0.0 0.0 0.00 0.78 0.73 99 1016.0
20210921004541 74 0 0.0 0.0 0.00 0.78 0.73 99 1015.8
20210921004010 74 0 0.0 0.0 0.00 0.78 0.73 99 1015.8
20210921001012 75 0 0.0 0.0 0.01 0.78 0.73 98 1015.6
20210921000511 75 0 0.0 0.0 0.01 0.78 0.73 98 1015.7
20210921000106 75 0 0.0 0.0 0.01 0.78 0.73 98 1015.4
20210920235509 75 0 0.0 0.0 0.01 0.78 0.73 98 1015.4
20210920235011 75 0 0.0 0.0 0.01 0.78 0.73 98 1015.5
20210920234511 75 0 0.0 0.0 0.01 0.78 0.73 98 1015.7
20210920234009 75 0 0.0 0.0 0.01 0.78 0.73 98 1015.8
20210920233515 75 0 0.0 0.0 0.01 0.78 0.73 97 1015.7
20210920233011 75 0 0.0 0.0 0.01 0.78 0.73 97 1015.5
20210920232512 75 0 0.0 0.0 0.01 0.78 0.73 97 1015.7
20210920232011 75 0 0.0 0.0 0.02 0.78 0.73 97 1015.7
20210920231509 75 0 0.0 0.0 0.02 0.78 0.73 97 1015.7
20210920231030 75 0 0.0 0.0 0.01 0.77 0.72 97 1015.5
20210920230511 75 0 0.0 0.0 0.02 0.77 0.72 98 1015.5
20210920230014 75 0 0.0 0.0 0.04 0.77 0.72 98 1015.7
20210920225509 75 0 0.0 0.0 0.08 0.77 0.72 97 1015.8
20210920225009 75 0 0.0 0.0 0.13 0.77 0.72 97 1015.7
20210920224511 75 0 0.0 0.0 0.13 0.77 0.72 97 1015.8
20210920224031 75 0 0.0 0.0 0.13 0.77 0.72 97 1016.1
20210920223508 75 0 0.0 0.0 0.13 0.77 0.72 97 1016.0
20210920223014 75 0 0.0 0.0 0.13 0.77 0.72 96 1016.0
20210920222509 75 0 0.0 0.0 0.13 0.77 0.72 96 1016.0
20210920222008 74 0 0.0 0.0 0.12 0.76 0.71 97 1015.9
20210920221518 74 0 0.0 0.0 0.12 0.76 0.71 96 1016.0
20210920221010 74 0 0.0 0.0 0.12 0.76 0.71 95 1015.9
20210920220512 75 0 0.0 0.0 0.10 0.74 0.69 95 1016.1
20210920220038 75 0 0.0 0.0 0.08 0.72 0.67 96 1016.1
20210920215509 75 0 0.0 0.0 0.05 1.00 0.64 95 1016.1
20210920214512 76 0 0.0 0.0 0.52 0.88 0.52 95 1016.3
20210920214012 76 0 0.0 0.0 0.45 0.81 0.45 95 1016.1
20210920213512 77 0 0.0 0.0 0.41 0.77 0.41 95 1015.7
20210920213036 77 0 0.0 1.0 0.30 0.66 0.30 93 1015.6
20210920212511 78 0 0.0 4.0 0.24 0.60 0.24 91 1015.7
20210920212024 79 0 0.0 5.0 0.20 0.56 0.20 85 1015.4
20210920211516 80 284 1.0 5.0 0.14 0.50 0.14 89 1015.2
20210920211012 81 0 0.0 3.0 0.09 0.45 0.09 88 1015.4
20210920210513 82 254 0.0 3.0 0.05 0.41 0.05 86 1015.5
20210920210011 84 0 0.0 3.0 0.02 0.38 0.02 82 1015.3
20210920205512 85 0 0.0 3.0 0.00 0.36 0.00 80 1015.2
20210920205012 85 0 0.0 3.0 0.00 0.36 0.00 77 1015.2
20210920204535 86 217 0.0 1.0 0.00 0.36 0.00 75 1015.2
20210920204014 86 0 0.0 1.0 0.00 0.36 0.00 76 1015.3
20210920203512 86 0 0.0 1.0 0.00 0.36 0.00 74 1015.2
20210920203042 86 0 0.0 3.0 0.00 0.36 0.00 74 1015.3
20210920202512 86 0 0.0 3.0 0.00 0.36 0.00 74 1015.5
20210920202011 86 0 0.0 3.0 0.00 0.36 0.00 76 1015.5
20210920201517 86 0 0.0 4.0 0.00 0.36 0.00 74 1015.5
20210920201012 86 0 0.0 4.0 0.00 0.36 0.00 76 1015.3
20210920200512 86 0 0.0 2.0 0.00 0.36 0.00 74 1015.2
20210920200018 86 0 0.0 0.0 0.00 0.36 0.00 75 1015.2
20210920195511 86 0 0.0 0.0 0.00 0.36 0.00 75 1015.3
20210920195011 86 0 0.0 0.0 0.00 0.36 0.00 75 1015.4
20210920194528 86 0 0.0 0.0 0.00 0.36 0.00 73 1015.5
20210920194009 87 0 0.0 2.0 0.00 0.36 0.00 71 1015.5
20210920193514 87 0 0.0 2.0 0.00 0.36 0.00 72 1015.5
20210920193015 87 0 0.0 2.0 0.00 0.36 0.00 73 1015.6
20210920192512 87 0 0.0 3.0 0.00 0.36 0.00 71 1015.6
20210920192016 87 0 0.0 3.0 0.00 0.36 0.00 72 1015.6
20210920191517 86 0 0.0 3.0 0.00 0.36 0.00 73 1015.7
20210920191024 86 0 0.0 4.0 0.00 0.36 0.00 74 1015.7
20210920190513 86 0 0.0 4.0 0.00 0.36 0.00 74 1015.7
20210920190055 86 0 0.0 3.0 0.00 0.36 0.00 73 1015.8
20210920185517 86 0 0.0 2.0 0.00 0.36 0.00 75 1015.9
20210920185016 85 134 0.0 2.0 0.00 0.36 0.00 77 1016.1
20210920184514 85 0 0.0 1.0 0.00 0.36 0.00 76 1016.1
20210920184011 85 0 0.0 3.0 0.00 0.36 0.00 74 1016.2
20210920183516 85 0 0.0 4.0 0.00 0.36 0.00 77 1016.3
20210920183012 85 146 1.0 4.0 0.00 0.36 0.00 80 1016.3
20210920171009 84 0 0.0 3.0 0.00 0.36 0.00 77 1017.3
20210920170530 84 0 0.0 1.0 0.00 0.36 0.00 79 1017.2
20210920170012 84 0 0.0 0.0 0.00 0.36 0.00 76 1017.3
20210920165509 83 0 0.0 0.0 0.00 0.36 0.00 80 1017.3
20210920165014 83 0 0.0 1.0 0.00 0.36 0.00 82 1017.3
20210920164514 83 0 0.0 1.0 0.00 0.36 0.00 82 1017.3
20210920164011 82 0 0.0 1.0 0.00 0.36 0.00 85 1017.2
20210920163509 82 0 0.0 0.0 0.00 0.36 0.00 84 1017.3
20210920163025 81 0 0.0 0.0 0.00 0.36 0.00 84 1017.4
20210920162509 81 0 0.0 0.0 0.00 0.36 0.00 88 1017.3
20210920162012 81 0 0.0 0.0 0.00 0.36 0.00 87 1017.3
20210920161515 80 0 0.0 0.0 0.00 0.36 0.00 87 1017.3
20210920161008 80 0 0.0 1.0 0.00 0.36 0.00 87 1017.4
20210920160510 80 0 0.0 1.0 0.00 0.36 0.00 87 1017.4
20210920160011 80 0 0.0 0.0 0.00 0.36 0.00 87 1017.5
20210920155509 80 0 0.0 0.0 0.00 0.36 0.00 87 1017.5
20210920155028 80 0 0.0 0.0 0.00 0.36 0.00 89 1017.4
20210920154512 80 0 0.0 0.0 0.00 0.36 0.00 89 1017.5
20210920154010 79 0 0.0 0.0 0.00 0.36 0.00 89 1017.5
20210920153509 79 0 0.0 0.0 0.00 0.36 0.00 89 1017.5
20210920153012 79 0 0.0 0.0 0.00 0.36 0.00 90 1017.6
20210920152516 79 0 0.0 0.0 0.00 0.36 0.00 91 1017.5
20210920152009 78 0 0.0 0.0 0.00 0.36 0.00 91 1017.7
20210920151513 78 0 0.0 0.0 0.00 0.36 0.00 91 1017.7
20210920151009 78 0 0.0 0.0 0.00 0.36 0.00 92 1017.6
20210920150508 78 0 0.0 0.0 0.00 0.36 0.00 91 1017.4
20210920150019 78 0 0.0 0.0 0.00 0.36 0.00 93 1017.6
20210920145519 77 0 0.0 0.0 0.00 0.36 0.00 92 1017.6
20210920145010 77 0 0.0 0.0 0.00 0.36 0.00 92 1017.7
20210920144510 77 0 0.0 0.0 0.00 0.36 0.00 93 1017.6
20210920144009 77 0 0.0 0.0 0.00 0.36 0.00 93 1017.4
20210920143514 77 0 0.0 0.0 0.00 0.36 0.00 94 1017.3
20210920143012 77 0 0.0 0.0 0.00 0.36 0.00 93 1017.2
20210920142509 77 0 0.0 0.0 0.00 0.36 0.00 94 1017.2
20210920142008 77 0 0.0 0.0 0.00 0.36 0.00 95 1017.1
20210920141518 76 0 0.0 0.0 0.00 0.36 0.00 95 1017.1
20210920141013 76 0 0.0 0.0 0.00 0.36 0.00 94 1017.1
20210920140509 76 0 0.0 0.0 0.00 0.36 0.00 95 1017.0
20210920140009 76 0 0.0 0.0 0.00 0.36 0.00 96 1016.9
20210920135510 76 0 0.0 0.0 0.00 0.36 0.00 97 1016.9
20210920135018 75 0 0.0 0.0 0.00 0.36 0.00 97 1016.8
20210920134530 75 0 0.0 0.0 0.00 0.36 0.00 98 1016.7
20210920134014 75 0 0.0 0.0 0.00 0.36 0.00 98 1016.7
20210920133510 75 0 0.0 0.0 0.00 0.36 0.00 98 1016.7
20210920133010 75 0 0.0 0.0 0.00 0.36 0.00 99 1016.7
20210920132514 75 0 0.0 0.0 0.00 0.36 0.00 99 1016.7
20210920132016 75 0 0.0 0.0 0.00 0.36 0.00 99 1016.5
20210920131526 75 0 0.0 0.0 0.00 0.36 0.00 99 1016.5
20210920131008 74 0 0.0 0.0 0.00 0.36 0.00 99 1016.4
20210920130512 74 0 0.0 0.0 0.00 0.36 0.00 99 1016.5
20210920130011 74 0 0.0 0.0 0.00 0.36 0.00 99 1016.5
20210920125511 74 0 0.0 0.0 0.00 0.36 0.00 100 1016.5
20210920125027 74 0 0.0 0.0 0.00 0.36 0.00 100 1016.5
20210920124511 74 0 0.0 0.0 0.00 0.36 0.00 100 1016.5
20210920124014 74 0 0.0 0.0 0.00 0.36 0.00 100 1016.5
20210920123515 74 0 0.0 0.0 0.00 0.36 0.00 100 1016.4
20210920123054 74 0 0.0 0.0 0.00 0.36 0.00 100 1016.4
20210920122524 74 0 0.0 0.0 0.00 0.36 0.00 100 1016.5
20210920122011 74 0 0.0 0.0 0.00 0.36 0.00 100 1016.4
20210920121546 74 0 0.0 0.0 0.00 0.36 0.00 100 1016.3
20210920121029 74 0 0.0 0.0 0.00 0.36 0.00 100 1016.4
20210920120509 74 0 0.0 0.0 0.00 0.36 0.00 100 1016.3
20210920120010 74 0 0.0 0.0 0.00 0.36 0.00 100 1016.3
20210920115516 74 0 0.0 0.0 0.00 0.36 0.00 100 1016.3
20210920115008 74 0 0.0 0.0 0.00 0.36 0.00 99 1016.3
20210920114515 74 0 0.0 0.0 0.00 0.36 0.00 100 1016.2
20210920114009 74 0 0.0 0.0 0.00 0.36 0.00 100 1016.3
20210920113516 74 0 0.0 0.0 0.00 0.36 0.00 99 1016.2
20210920113019 74 0 0.0 0.0 0.00 0.36 0.00 99 1016.3
20210920112513 74 0 0.0 0.0 0.00 0.36 0.00 99 1016.2
20210920112012 74 0 0.0 0.0 0.00 0.36 0.00 99 1016.2
20210920111526 74 0 0.0 0.0 0.00 0.36 0.00 99 1016.2
20210920111010 74 0 0.0 0.0 0.00 0.36 0.00 99 1016.1
20210920110509 74 0 0.0 0.0 0.00 0.36 0.00 99 1016.1
20210920110010 74 0 0.0 0.0 0.00 0.36 0.00 99 1016.0
20210920105509 74 0 0.0 0.0 0.00 0.36 0.00 99 1016.0
20210920105010 74 0 0.0 0.0 0.00 0.36 0.00 99 1016.0
20210920104544 74 0 0.0 0.0 0.00 0.36 0.00 99 1016.0
20210920104009 74 0 0.0 0.0 0.00 0.36 0.00 99 1015.9
20210920103509 74 0 0.0 0.0 0.00 0.36 0.00 99 1016.0
20210920103012 74 0 0.0 0.0 0.00 0.36 0.00 99 1015.8
20210920102508 74 0 0.0 0.0 0.00 0.36 0.00 99 1015.9
20210920102010 74 0 0.0 0.0 0.00 0.36 0.00 99 1015.8
20210920101510 74 0 0.0 0.0 0.00 0.36 0.00 99 1015.8
20210920101022 74 0 0.0 0.0 0.00 0.36 0.00 99 1015.7
20210920100510 74 0 0.0 0.0 0.00 0.36 0.00 99 1015.8
20210920100018 74 0 0.0 0.0 0.00 0.36 0.00 99 1015.8
20210920095515 74 0 0.0 0.0 0.00 0.36 0.00 99 1015.7
20210920095010 74 0 0.0 0.0 0.00 0.36 0.00 99 1015.7
20210920094510 74 0 0.0 0.0 0.00 0.36 0.00 99 1015.6
20210920094015 74 0 0.0 0.0 0.00 0.36 0.00 99 1015.6
20210920093514 74 0 0.0 0.0 0.00 0.36 0.00 99 1015.5
20210920093010 74 0 0.0 0.0 0.00 0.36 0.00 99 1015.5
20210920092511 74 0 0.0 0.0 0.00 0.36 0.00 99 1015.5
20210920092009 74 0 0.0 0.0 0.00 0.36 0.00 99 1015.3
20210920091515 74 0 0.0 0.0 0.00 0.36 0.00 99 1015.4
20210920091010 74 0 0.0 0.0 0.00 0.36 0.00 99 1015.3
20210920090510 74 0 0.0 0.0 0.00 0.36 0.00 99 1015.2
20210920090041 74 0 0.0 0.0 0.00 0.36 0.00 99 1015.2
20210920085516 74 0 0.0 0.0 0.00 0.36 0.00 99 1015.3
20210920085017 74 0 0.0 0.0 0.00 0.36 0.00 99 1015.3
20210920084512 74 0 0.0 0.0 0.00 0.36 0.00 99 1015.2
20210920084016 74 0 0.0 0.0 0.00 0.36 0.00 99 1015.2
20210920083509 74 0 0.0 0.0 0.00 0.36 0.00 99 1015.1
20210920083012 74 0 0.0 0.0 0.00 0.36 0.00 99 1015.2
20210920082510 74 0 0.0 0.0 0.00 0.36 0.00 99 1015.3
20210920082009 74 0 0.0 0.0 0.00 0.36 0.00 99 1015.3
20210920081510 74 0 0.0 0.0 0.00 0.36 0.00 99 1015.2
20210920081019 74 0 0.0 0.0 0.00 0.36 0.00 99 1015.3
20210920080512 74 0 0.0 0.0 0.00 0.36 0.00 99 1015.3
20210920080011 74 0 0.0 0.0 0.00 0.36 0.00 99 1015.3
20210920075515 74 0 0.0 0.0 0.00 0.36 0.00 99 1015.3
20210920075011 74 0 0.0 0.0 0.00 0.36 0.00 99 1015.4
20210920074512 74 0 0.0 0.0 0.00 0.36 0.00 99 1015.4
20210920074018 74 0 0.0 0.0 0.00 0.36 0.00 99 1015.5
20210920073514 74 0 0.0 0.0 0.00 0.36 0.00 99 1015.3
20210920073027 74 0 0.0 0.0 0.00 0.36 0.00 99 1015.4
20210920072519 74 0 0.0 0.0 0.00 0.36 0.00 99 1015.5
20210920072013 74 0 0.0 0.0 0.00 0.36 0.00 99 1015.5
20210920071512 74 0 0.0 0.0 0.00 0.36 0.00 99 1015.6
20210920071012 74 0 0.0 0.0 0.00 0.36 0.00 99 1015.5
20210920070513 74 0 0.0 0.0 0.00 0.36 0.00 99 1015.5
20210920070013 74 0 0.0 0.0 0.00 0.36 0.00 99 1015.6
20210920065512 74 0 0.0 0.0 0.00 0.36 0.00 99 1015.5
20210920065012 74 0 0.0 0.0 0.00 0.36 0.00 99 1015.5
20210920064516 74 0 0.0 0.0 0.00 0.36 0.00 99 1015.6
20210920064016 74 0 0.0 0.0 0.00 0.36 0.00 99 1015.7
20210920063515 74 0 0.0 0.0 0.00 0.36 0.00 99 1015.7
20210920063015 74 0 0.0 0.0 0.00 0.36 0.00 99 1015.7
20210920062510 74 0 0.0 0.0 0.00 0.36 0.00 99 1015.8
20210920062010 74 0 0.0 0.0 0.00 0.36 0.00 99 1015.7
20210920061523 74 0 0.0 0.0 0.00 0.36 0.00 99 1015.8
20210920061032 74 0 0.0 0.0 0.00 0.36 0.00 99 1015.7
20210920060520 74 0 0.0 0.0 0.00 0.36 0.00 99 1015.7
20210920060045 74 0 0.0 0.0 0.00 0.36 0.00 99 1015.9
20210920055513 74 0 0.0 0.0 0.00 0.36 0.00 99 1015.8
20210920055034 74 0 0.0 0.0 0.00 0.36 0.00 99 1015.9
20210920054529 74 0 0.0 0.0 0.00 0.36 0.00 99 1016.1